FENGYUN 1C DEB, 30888

Orbit data source: Space-Track

FENGYUN 1C DEB, 30888 is space debris in SSO originally from a launch on Mon, 10 May 1999 UTC launched from the Taiyaun Space Center, China (TSC). Fengyun 1C debris stems from the Chinese weather satellite Fengyun-1C, which was intentionally destroyed by a Chinese anti-satellite missile in 2007. This event dramatically increased the amount of space debris, with thousands of trackable fragments posing hazards to satellites and human spaceflight. The Fengyun 1C debris cloud has become a focal point in discussions about space sustainability and the need for international regulations to prevent the creation of new debris.

Loading next visibility...
Identifier
30888, 1999-025AYA
Orbit
SSO
Country
Flag of CNCN / PRC
Related business
Manufacturer
Unknown
Mission
Spacecraft
Bus & Motor
Unknown
Mass
Unknown
Launch date (UTC)
1999-05-10 (27 years ago)
Launch vehicle
Unknown
Launch site
Taiyaun Space Center, China (TSC)
Object type
Payload
Rocket body
Debris
Shape & HBR
Unknown shape, 0.1 m
Radar Cross Section
Small (<0.1 m²)

Expand to show TLE details & history
Last TLE update: 2 days ago

TLE from 2 days ago
0 FENGYUN 1C DEB
1 30888U 99025AYA 26122.26891805  .00017714  00000-0  13952-2 0  9996
2 30888  99.4889 135.6776 0077768  65.4453 295.4844 14.98488023 20187
Epoch: 2026-05-02T06:27Z
TLE epoch observation values (Epoch: 2026-05-02T06:27:14.519Z)
Latitude
-0.00006°
Longitude
178.67787°
Altitude
551.647 km
Speed
7.599 km/s
True Right ascension
09h 02m 42s
True Declination
0° 00' 00"
Sunlit
Object was in daylight at epoch
Visualization orbit readout
Latitude
Unknown
Longitude
Unknown
Altitude
Unknown
Speed
Unknown
Apparent Right ascension
Unknown
Apparent Declination
Unknown
Sunlit
N/A
Visualization observer readout
Local Sidereal Time
16:31:33
Azimuth
Unknown
Elevation
Unknown
Doppler factor
Unknown
Orbital elements
Apogee altitude
622.686 km
Perigee altitude
514.638 km
Semi-major axis
6,946.799 km
Eccentricity
0.00778
Inclination
99.4889°
RAAN
135.6776°
Arg. of periapsis
65.4453°
True anomaly
294.6766°
Mean anomaly
295.4844°
Eccentric anomaly
295.08084°
Mean motion
3.74857 °/min
Orbital period
96.04 mins
BSTAR
0.0013952
Loading maneuver chart data...
Computing Atmospheric mass density...
Loading historical data...
Loading historical data...
Loading historical data...
Loading historical data...
Loading historical data...
Loading historical data...
Loading historical data...

Documentation

Showing up to 5 results
|